[[{"header":{"parameterUnit":"m.s-1","parameterCategory":1,"la1":30.2991,"la2":30.254,"lo1":-89.0895,"lo2":-89.0444,"dy":0.0017,"dx":0.0017,"nx":28,"ny":28,"refTime":"2024-04-23T03:00:00:Z","depth":0,"parameterNumber":2,"parameterNumberName":"U-component_of_WINDS"},"data":[0,0,0,0,0,0,0,0,0,0,0,0,0,0,0,0,0,0,0,0,0,0,0,0,0,0,0,0,0,0,0,0,0,0,0,0,0,0,0,0,0,0,0,0,0,0,0,0,0,0,0,0,0,0,0,0,0,0,1.174,1.174,0,1.1763,1.1763,1.1763,1.1751,1.175,1.175,1.1749,1.1771,1.1772,1.1773,0,0,0,0,0,0,0,0,0,0,0,0,0,1.1683,1.1684,1.174,1.174,1.1741,1.1763,1.1763,1.1763,1.1751,1.175,1.1749,1.1749,1.177,1.1772,1.1773,0,0,0,0,0,0,0,0,0,0,0,0,0,1.1707,1.1684,1.174,1.1737,1.1737,1.1763,1.1763,1.1763,1.1751,1.175,1.1749,1.1748,1.177,1.1772,1.1773,1.1803,0,0,1.1779,1.1779,0,0,0,0,0,0,0,0,1.1705,1.1709,1.1737,1.1737,1.1737,1.1753,1.1751,1.1777,1.1751,1.1746,1.1749,1.1748,1.1766,1.1768,1.1774,1.1804,1.1805,1.1779,1.178,1.1781,1.1781,0,0,0,0,0,0,0,1.1704,1.1708,1.1749,1.1738,1.1738,1.1734,1.1736,1.1756,1.176,1.1746,1.1745,1.1748,1.1765,1.1772,1.1774,1.1805,1.1779,1.178,1.1781,1.1782,1.1857,1.1858,0,0,0,0,0,0,1.1702,1.1706,1.1748,1.175,1.1719,1.1735,1.1738,1.1749,1.176,1.1761,1.1749,1.1748,1.177,1.1772,1.1775,1.1808,1.1781,1.1782,1.1783,1.1856,1.1858,1.1859,0,0,0,0,0,0,1.1701,1.1706,1.1747,1.1728,1.1733,1.1737,1.175,1.175,1.1757,1.1762,1.1763,1.1755,1.1769,1.1773,1.1795,1.1808,1.1783,1.1785,1.1855,1.1857,1.1858,1.1875,0,0,0,0,0,0,1.17,1.1706,1.1718,1.1728,1.1734,1.1768,1.1751,1.1751,1.176,1.1758,1.1768,1.1769,1.1769,1.1793,1.1797,1.181,1.1786,1.1854,1.1856,1.1858,1.1874,1.1877,1.188,0,0,0,0,0,1.1698,1.1722,1.1719,1.1724,1.1749,1.1769,1.1772,1.1771,1.1761,1.1772,1.1776,1.1769,1.1807,1.1795,1.18,1.1814,1.1853,1.1855,1.1857,1.1872,1.1876,1.188,0,0,0,0,0,0,1.1713,1.1724,1.172,1.1748,1.1758,1.1767,1.1781,1.1776,1.1789,1.1786,1.1785,1.1787,1.181,1.1815,1.1802,1.1842,1.1828,1.1831,1.1838,1.1842,1.1845,1.1843,1.1787,0,0,0,0,0,1.172,1.1736,1.1744,1.1769,1.1774,1.1777,1.1785,1.1784,1.1793,1.1797,1.1802,1.1811,1.1825,1.1834,1.1847,1.1875,1.1875,1.1887,1.189,1.1893,1.1895,1.1907,1.1911,1.1866,1.1866,1.1866,0,0,1.1734,1.1742,1.1752,1.1772,1.1779,1.1794,1.178,1.1798,1.1808,1.18,1.1821,1.1825,1.1835,1.186,1.1871,1.1864,1.1908,1.1895,1.1898,1.1898,1.191,1.1914,1.1918,1.1867,1.1867,1.1867,0,0,1.1767,1.1776,1.1796,1.1803,1.1814,1.1816,1.182,1.183,1.1832,1.1854,1.1847,1.186,1.1884,1.189,1.1897,1.1931,1.1924,1.1935,1.1952,1.1964,1.1968,1.1971,1.1981,1.1985,1.1938,1.1938,1.1938,0,1.1783,1.1807,1.1806,1.1824,1.1832,1.1825,1.1844,1.1851,1.1866,1.1871,1.1863,1.1892,1.1899,1.1923,1.1931,1.1938,1.1942,1.1933,1.1968,1.1971,1.1974,1.1983,1.1987,1.1939,1.1939,1.1939,1.1939,0,1.1824,1.184,1.1855,1.1869,1.1879,1.1897,1.1898,1.1908,1.1906,1.1908,1.1929,1.1936,1.1949,1.1956,1.1954,1.198,1.1975,1.1968,1.1954,1.1979,1.1988,1.1991,1.1941,1.194,1.194,1.194,0,0,1.1867,1.188,1.1885,1.189,1.1901,1.1913,1.1931,1.1944,1.1951,1.1962,1.1975,1.1995,1.1988,1.1995,1.1994,1.2005,1.2028,1.1996,1.1996,1.2,1.2055,1.2058,1.2063,1.2025,1.2025,1.2026,1.2053,0,1.1898,1.1929,1.1928,1.1956,1.197,1.1963,1.1978,1.1986,1.1988,1.1999,1.2002,1.2015,1.2006,1.201,1.2021,1.2023,1.2039,1.2022,1.2035,1.2036,1.2031,1.2068,1.2072,1.2097,1.2057,1.2057,1.2058,0,1.1939,1.195,1.1979,1.1986,1.1992,1.2005,1.2016,1.2028,1.2036,1.2037,1.2045,1.2041,1.2057,1.2044,1.2066,1.2054,1.2059,1.2061,1.2062,1.2062,1.2047,1.2066,1.2106,1.2109,1.2064,1.2063,1.2063,0,1.1964,1.1986,1.2006,1.2011,1.2021,1.203,1.2034,1.2041,1.2049,1.2059,1.2063,1.2075,1.208,1.2089,1.2088,1.2079,1.2109,1.2096,1.2109,1.2108,1.2114,1.2113,1.2152,1.2121,1.2121,1.2121,1.2121,0,1.1998,1.2015,1.2016,1.2028,1.2047,1.2046,1.2064,1.2068,1.2074,1.2086,1.2081,1.2092,1.2092,1.2102,1.2102,1.2118,1.2122,1.2122,1.2121,1.2121,1.212,1.2123,1.212,1.2122,1.2122,1.2121,1.2121,0,1.2028,1.203,1.205,1.2058,1.206,1.2073,1.2079,1.2089,1.2091,1.2106,1.2109,1.2112,1.2124,1.2125,1.2139,1.2139,1.2158,1.2156,1.2155,1.2154,1.2165,1.2163,1.2206,1.2211,1.2178,1.2178,1.2179,0,1.2048,1.2061,1.207,1.2077,1.2082,1.2094,1.2101,1.2101,1.2109,1.2118,1.2127,1.2139,1.2148,1.2168,1.217,1.2181,1.2178,1.2192,1.218,1.2178,1.2176,1.2174,1.2174,1.2194,1.2195,1.2195,1.2195,0,1.2083,1.2083,1.2094,1.2105,1.2114,1.2122,1.213,1.2136,1.2137,1.2146,1.2158,1.2165,1.2179,1.219,1.22,1.2204,1.2199,1.2199,1.2202,1.2201,1.2199,1.2198,1.2159,1.2198,1.2198,1.2197,1.2197,1.2197,1.2107,1.2117,1.2125,1.2136,1.2142,1.215,1.2159,1.2162,1.2173,1.2184,1.2183,1.2196,1.2203,1.2216,1.222,1.223,1.2225,1.223,1.2231,1.2231,1.2231,1.2199,1.2232,1.2232,1.2232,1.2232,1.2232,0,1.2139,1.2144,1.2155,1.2166,1.2175,1.217,1.2179,1.2186,1.2198,1.2204,1.2213,1.2227,1.2237,1.2241,1.2251,1.2258,1.2256,1.226,1.2259,1.2259,1.2236,1.2232,1.2261,1.2261,1.2261,1.2261,1.2261,1.2261,1.2157,1.2174,1.2175,1.2194,1.2198,1.2211,1.2215,1.2222,1.2227,1.2242,1.2251,1.2253,1.2258,1.2268,1.2277,1.2278,1.2281,1.2286,1.2286,1.2264,1.2261,1.2258,1.2254,1.2287,1.2287,1.2307,1.2307,1.2308]},{"header":{"parameterUnit":"m.s-1","parameterCategory":1,"la1":30.2991,"la2":30.254,"lo1":-89.0895,"lo2":-89.0444,"dy":0.0017,"dx":0.0017,"nx":28,"ny":28,"refTime":"2024-04-23T03:00:00:Z","depth":0,"parameterNumber":3,"parameterNumberName":"V-component_of_WINDS"},"data":[0,0,0,0,0,0,0,0,0,0,0,0,0,0,0,0,0,0,0,0,0,0,0,0,0,0,0,0,0,0,0,0,0,0,0,0,0,0,0,0,0,0,0,0,0,0,0,0,0,0,0,0,0,0,0,0,0,0,1.5303,1.5305,0,1.5418,1.542,1.5421,1.5426,1.5425,1.5423,1.5422,1.5535,1.554,1.5544,0,0,0,0,0,0,0,0,0,0,0,0,0,1.5082,1.5086,1.5303,1.5305,1.5306,1.5418,1.542,1.5421,1.5426,1.5425,1.5423,1.5421,1.5534,1.5539,1.5544,0,0,0,0,0,0,0,0,0,0,0,0,0,1.5186,1.5088,1.5303,1.5322,1.5325,1.5418,1.542,1.5422,1.5427,1.5425,1.5423,1.5421,1.5532,1.5539,1.5545,1.5625,0,0,1.5564,1.5567,0,0,0,0,0,0,0,0,1.518,1.5194,1.5318,1.5321,1.5325,1.5406,1.5383,1.5489,1.5427,1.5388,1.5422,1.542,1.5494,1.5503,1.5529,1.563,1.5635,1.5565,1.5569,1.5572,1.5573,0,0,0,0,0,0,0,1.5173,1.5189,1.5349,1.532,1.5324,1.5323,1.5336,1.5403,1.545,1.5391,1.5392,1.5406,1.5495,1.5523,1.5532,1.5636,1.5565,1.557,1.5574,1.5577,1.5805,1.5807,0,0,0,0,0,0,1.5162,1.5183,1.5345,1.5352,1.5246,1.5329,1.5343,1.5382,1.545,1.5458,1.5407,1.5405,1.5513,1.5524,1.5536,1.5631,1.5572,1.5578,1.5581,1.5803,1.5805,1.5808,0,0,0,0,0,0,1.5158,1.5177,1.534,1.5268,1.5289,1.5335,1.5378,1.5385,1.5413,1.5462,1.547,1.5427,1.5512,1.5527,1.5602,1.5635,1.558,1.5586,1.58,1.5804,1.5807,1.5825,0,0,0,0,0,0,1.5151,1.5175,1.5208,1.5269,1.5292,1.5407,1.5381,1.5389,1.5424,1.5423,1.5483,1.5491,1.5511,1.5592,1.5608,1.5643,1.5591,1.5797,1.5802,1.5806,1.5822,1.5829,1.5835,0,0,0,0,0,1.5143,1.5208,1.5209,1.5229,1.5334,1.5409,1.5422,1.5446,1.5427,1.5459,1.549,1.5489,1.5629,1.56,1.5618,1.5655,1.5795,1.58,1.5805,1.5819,1.5827,1.5834,0,0,0,0,0,0,1.5149,1.5217,1.5219,1.5305,1.5351,1.541,1.5451,1.5454,1.5506,1.5502,1.5527,1.5541,1.5615,1.5643,1.5609,1.5734,1.571,1.5719,1.5714,1.5722,1.5729,1.572,1.5597,0,0,0,0,0,1.5161,1.5218,1.5272,1.5343,1.5366,1.5404,1.5438,1.5452,1.55,1.5519,1.5556,1.5601,1.5655,1.569,1.5743,1.5825,1.5837,1.586,1.5866,1.5871,1.5878,1.5921,1.5931,1.5824,1.5824,1.5824,0,0,1.5185,1.5229,1.5263,1.5346,1.5383,1.5439,1.5421,1.5482,1.5523,1.5528,1.5601,1.5629,1.5681,1.576,1.5796,1.5785,1.591,1.5877,1.5881,1.5886,1.5927,1.5937,1.5946,1.5828,1.5827,1.5826,0,0,1.5257,1.5297,1.536,1.5397,1.5454,1.5478,1.5493,1.555,1.5569,1.5644,1.5648,1.5696,1.5789,1.5826,1.5856,1.5939,1.5939,1.5955,1.5989,1.603,1.6038,1.6046,1.6073,1.6083,1.5962,1.5962,1.5962,0,1.528,1.5366,1.5391,1.5451,1.5486,1.5494,1.5555,1.559,1.5661,1.5683,1.567,1.5786,1.5822,1.5907,1.5927,1.5952,1.5968,1.5948,1.6035,1.6043,1.6051,1.6077,1.6088,1.5964,1.5963,1.5963,1.5963,0,1.539,1.5449,1.5492,1.5561,1.5601,1.5661,1.5692,1.5729,1.5739,1.5764,1.5837,1.588,1.594,1.5962,1.5972,1.6048,1.6039,1.6031,1.6006,1.6062,1.6087,1.6098,1.5966,1.5965,1.5965,1.5964,0,0,1.5471,1.555,1.5566,1.5596,1.5658,1.5703,1.5762,1.5822,1.5852,1.59,1.5948,1.6026,1.6017,1.6052,1.6066,1.6102,1.6162,1.6089,1.609,1.6099,1.6246,1.6251,1.6263,1.6162,1.6164,1.6166,1.6241,0,1.5549,1.5657,1.5679,1.5771,1.5825,1.5831,1.5882,1.5925,1.5949,1.5996,1.6022,1.6076,1.6062,1.6082,1.6119,1.6147,1.6191,1.6142,1.6206,1.6208,1.6192,1.6277,1.6283,1.6352,1.6251,1.6253,1.6254,0,1.5655,1.5705,1.5803,1.5855,1.5879,1.5925,1.5979,1.6025,1.6072,1.6086,1.6124,1.6133,1.6192,1.6165,1.6245,1.6211,1.6238,1.6256,1.6259,1.6265,1.6234,1.6284,1.6375,1.6385,1.627,1.6269,1.6268,0,1.5702,1.5794,1.5864,1.5889,1.5953,1.5984,1.6012,1.6057,1.609,1.6137,1.6159,1.6212,1.6241,1.628,1.6302,1.6281,1.638,1.6356,1.6392,1.6392,1.6413,1.6411,1.6508,1.6432,1.6432,1.6431,1.6431,0,1.5787,1.5846,1.5885,1.5928,1.5993,1.6017,1.608,1.6107,1.6146,1.6192,1.6201,1.6244,1.6271,1.6317,1.6334,1.6396,1.641,1.6421,1.6425,1.642,1.6419,1.6438,1.6433,1.6434,1.6434,1.6433,1.6433,0,1.585,1.588,1.5956,1.6009,1.6023,1.6069,1.6113,1.6154,1.6177,1.6235,1.625,1.6286,1.634,1.6366,1.6433,1.6445,1.6515,1.6516,1.65,1.6501,1.6536,1.6531,1.6648,1.6664,1.6578,1.6579,1.6579,0,1.5902,1.5948,1.6005,1.6037,1.6065,1.6117,1.6151,1.6175,1.6209,1.6264,1.6297,1.6352,1.6397,1.6483,1.6514,1.6564,1.6566,1.6603,1.6573,1.6566,1.6564,1.6561,1.6565,1.6608,1.6609,1.661,1.661,0,1.599,1.6002,1.6051,1.6105,1.6145,1.6189,1.6231,1.6256,1.6286,1.6324,1.638,1.6415,1.6483,1.6536,1.6588,1.6614,1.6617,1.6619,1.663,1.6625,1.6613,1.6619,1.6513,1.6617,1.6616,1.6615,1.6615,1.6615,1.6049,1.6088,1.6134,1.6188,1.6222,1.6261,1.6301,1.6329,1.6376,1.6434,1.6445,1.6503,1.6545,1.6616,1.6643,1.6688,1.6679,1.6696,1.67,1.6703,1.6704,1.6607,1.6698,1.6698,1.6697,1.6697,1.6697,0,1.6135,1.6165,1.6214,1.6273,1.6315,1.6314,1.636,1.6394,1.6446,1.6486,1.653,1.6592,1.6643,1.6678,1.6729,1.6758,1.676,1.677,1.6768,1.6773,1.671,1.6695,1.6767,1.6767,1.6767,1.6767,1.6767,1.6767,1.6186,1.6252,1.6268,1.6351,1.6379,1.6438,1.6463,1.6498,1.653,1.66,1.6642,1.6665,1.6701,1.6755,1.6801,1.6809,1.6827,1.6837,1.6845,1.6785,1.6778,1.6771,1.6757,1.6841,1.6841,1.6905,1.6905,1.6906]}]]